Theta_e
307 307 307 308 308 308 308 307 307 307 306 306 305 305 306 306 308 307 308 313 307 301 302 306 307 304 306 306 302 307 309 313 311 305 304 304 305 308 305 308 307 305 304 303 304 299 299 315 314 303 310 314 318 318
306 307 307 307 308 307 307 307 306 306 307 306 306 305 305 306 307 308 303 313 313 303 302 308 308 309 309 310 307 310 306 314 314 311 312 313 310 311 308 301 311 305 307 307 307 305 311 314 318 320 320 315 317 318
307 307 307 307 307 307 307 306 306 305 306 306 306 305 305 305 306 306 304 309 310 304 303 303 304 312 314 313 314 305 309 315 312 316 312 313 307 311 304 306 308 313 316 308 309 308 310 311 320 318 319 317 320 321
307 307 307 307 307 307 307 306 306 306 306 306 306 305 305 305 307 306 302 308 308 304 296 300 312 309 314 314 316 315 314 315 317 315 311 312 310 316 311 310 310 311 315 310 311 315 313 317 319 318 318 319 319 320
306 306 306 307 307 307 307 306 306 306 306 305 306 306 305 305 307 305 303 306 310 303 296 298 304 308 311 311 313 314 313 315 311 309 311 310 314 311 311 312 310 314 313 310 312 316 315 316 318 319 317 317 318 318
305 305 305 306 306 306 306 306 306 305 306 305 306 306 305 306 307 301 299 310 313 311 300 294 305 305 307 311 312 312 314 313 312 311 312 315 320 316 308 307 316 317 319 318 318 324 319 319 319 320 317 318 318 317
304 304 305 306 306 306 306 306 306 305 306 305 305 306 305 306 304 297 298 304 309 310 299 295 297 306 311 310 311 312 314 313 313 311 312 313 315 318 312 308 315 319 320 319 323 318 315 316 314 318 318 318 318 318
304 304 305 306 306 307 307 306 306 306 306 305 306 305 306 306 304 297 300 303 308 305 303 294 296 302 312 305 305 312 308 311 313 311 315 314 318 316 309 314 318 319 321 320 323 322 319 318 318 316 316 316 314 313
304 304 305 306 306 306 306 306 306 306 306 306 306 305 303 300 296 300 310 309 309 304 296 297 295 295 309 307 309 308 311 306 314 309 311 315 313 308 312 315 315 319 318 319 321 319 318 316 316 315 315 314 312 312
304 305 305 305 306 306 306 306 306 306 306 306 302 297 293 299 311 310 304 301 300 301 300 294 300 298 303 301 305 308 312 305 303 308 314 309 308 316 313 322 322 324 323 322 317 315 315 314 314 313 313 314 314 313
305 305 305 306 306 306 306 306 306 306 306 300 296 296 306 312 305 301 295 294 296 293 297 297 298 297 306 297 302 308 305 307 301 305 306 305 304 312 318 315 321 324 323 322 321 320 318 316 314 313 314 315 314 313
305 305 305 305 306 306 306 306 306 302 300 301 301 307 306 300 296 291 291 294 294 291 299 297 298 299 301 304 304 306 303 307 300 308 306 300 308 314 319 321 324 324 323 324 324 322 320 318 317 315 314 313 313 314
305 305 305 306 306 306 306 305 305 305 305 303 299 296 296 295 285 286 285 289 291 296 301 302 298 302 303 304 302 304 301 301 310 304 301 305 310 316 317 322 325 323 324 324 323 323 321 319 318 316 315 315 315 315
304 305 305 305 305 306 306 305 305 305 302 295 292 284 288 287 289 289 290 292 298 303 303 304 301 302 304 300 303 299 304 307 301 301 303 311 314 317 320 320 320 323 324 323 322 321 319 318 317 317 316 317 316 314
304 304 305 305 305 305 305 305 305 304 298 292 293 285 289 293 296 297 297 297 304 305 304 301 299 302 300 298 302 302 300 298 302 302 309 313 315 316 319 316 320 323 323 321 320 319 319 318 316 316 317 317 317 316
304 304 302 304 305 305 305 305 303 301 297 294 293 291 294 293 293 296 299 299 304 303 303 299 293 293 297 299 298 297 297 297 305 310 315 318 322 324 323 325 325 324 322 321 320 319 318 317 316 317 318 317 316 316
302 299 303 304 304 305 304 300 298 293 292 292 291 296 295 295 295 299 303 302 305 300 296 296 290 289 300 297 297 302 300 308 309 309 312 319 321 323 324 325 325 323 322 321 320 319 318 319 318 317 315 316 317 317
298 302 304 304 304 301 298 297 294 293 289 292 290 293 297 298 297 301 303 303 301 299 299 294 296 292 293 295 297 306 308 310 309 310 313 316 327 327 327 325 324 323 321 321 320 319 319 317 316 316 316 317 316 316
302 303 304 303 300 295 292 293 296 290 291 294 294 296 297 298 302 304 303 303 303 302 300 297 292 293 296 303 303 305 309 312 309 308 313 314 323 327 326 325 324 322 321 321 319 318 318 317 317 318 317 317 314 315
303 303 303 302 302 296 292 293 298 294 291 293 295 295 295 296 298 301 301 300 300 298 295 294 293 298 298 300 306 305 307 310 312 310 309 320 327 327 325 324 323 323 322 321 321 313 318 319 319 318 318 316 315 314
302 302 302 301 299 299 296 295 292 293 295 294 296 295 294 297 296 296 297 302 298 296 294 298 299 302 304 306 308 309 308 310 307 308 312 316 326 327 326 326 324 323 321 320 318 316 314 317 318 319 315 316 317 317
299 302 298 298 295 296 294 299 296 297 295 294 295 296 294 293 294 296 299 296 296 297 299 299 301 304 308 306 306 310 308 308 309 310 310 316 323 324 324 323 322 321 320 319 319 317 318 319 319 318 317 316 315 316
300 299 296 296 291 289 290 300 294 294 291 291 295 292 292 293 295 299 293 296 297 300 301 301 304 307 307 309 310 310 310 310 311 314 317 324 325 326 325 324 324 321 320 319 320 319 318 308 308 317 316 316 315 312
301 295 291 290 291 287 294 292 295 293 293 292 291 289 291 294 297 294 290 293 297 300 299 301 303 303 309 308 307 308 311 312 312 312 320 323 323 324 325 324 323 323 321 319 318 318 317 317 310 315 316 315 314 313
288 288 290 285 292 290 288 289 289 290 288 290 289 289 292 297 291 290 290 293 295 297 300 301 304 303 306 308 309 309 311 312 311 312 320 325 324 324 323 322 322 322 322 320 316 317 315 315 316 315 316 315 314 313
284 289 286 289 289 288 288 286 288 288 289 288 289 293 294 292 288 289 294 296 297 299 300 304 307 305 307 309 305 305 307 313 315 316 323 325 323 322 320 319 318 319 323 320 318 316 314 316 316 316 314 308 297 312
284 288 292 296 293 292 290 292 293 291 288 288 290 291 290 286 288 293 301 308 308 309 311 310 307 306 305 308 309 310 313 316 319 321 326 325 325 326 324 321 319 321 322 321 319 317 315 316 315 314 313 313 313 314
291 292 288 291 291 293 290 292 290 289 290 294 293 289 288 290 293 302 304 307 311 310 310 312 317 310 310 312 314 315 317 319 320 325 325 326 325 326 326 325 321 299 320 321 319 318 317 316 314 313 313 312 313 315
292 294 294 291 292 292 292 291 291 293 296 295 292 291 293 303 307 305 306 309 311 308 306 308 314 313 312 316 317 317 316 314 320 319 319 317 317 319 322 320 320 319 316 310 293 308 316 315 314 313 314 314 314 313
291 296 292 291 290 289 293 297 295 298 299 298 299 299 299 301 306 309 308 309 307 305 307 310 314 318 312 314 316 316 318 322 324 321 319 317 317 320 319 318 317 316 316 314 310 304 294 306 302 312 312 313 311 310
295 295 292 292 291 294 296 299 300 299 299 298 300 298 298 300 304 308 310 311 309 308 309 312 316 319 318 319 318 318 318 324 325 326 324 322 321 319 319 317 317 316 315 314 313 312 311 312 313 312 312 311 308 308
294 292 291 289 292 296 299 297 296 296 296 297 297 299 298 298 297 302 313 313 311 311 307 310 317 318 321 323 324 324 303 324 325 322 321 321 320 318 318 317 317 316 315 314 313 313 313 313 312 312 311 311 311 310
294 294 295 294 294 292 295 295 294 294 295 295 296 297 298 297 296 306 316 316 315 316 319 320 321 321 321 323 324 323 310 324 312 298 297 298 301 307 316 317 316 315 314 314 313 314 314 314 312 312 311 310 309 309
Wind_Speed
24 23 22 20 17 15 12 10 9 9 7 6 3 3 4 6 7 5 3 4 1 2 7 6 8 8 9 4 6 15 11 9 2 2 2 3 2 5 3 4 1 6 7 4 4 4 5 5 2 6 8 4 5 16
26 23 22 20 18 15 13 10 9 8 7 6 4 4 3 5 6 7 3 3 2 3 5 7 15 16 14 15 9 5 5 5 4 6 7 5 4 6 7 2 7 5 3 1 1 7 6 6 8 4 3 5 7 14
25 24 21 20 17 15 12 11 10 9 8 6 5 4 4 5 6 5 4 3 2 3 6 6 6 2 8 15 12 9 5 4 3 2 4 2 4 2 3 4 6 6 7 5 9 7 6 7 7 4 6 8 11 12
25 23 21 19 17 14 13 11 11 9 8 7 5 5 5 5 6 5 3 4 3 3 3 5 3 5 11 12 11 11 14 7 3 4 4 3 3 1 2 4 2 3 4 10 10 14 4 3 7 8 8 11 12 10
24 23 21 18 16 14 12 11 10 9 8 7 6 6 5 6 6 5 6 6 3 2 4 7 13 10 10 12 12 13 8 3 2 4 4 4 3 2 3 3 3 2 6 9 7 6 4 5 8 10 9 9 11 15
22 20 20 18 15 14 12 11 10 9 8 7 7 6 5 5 5 4 2 3 4 1 3 5 6 5 11 8 11 15 6 3 3 3 3 6 9 5 4 3 4 3 2 2 5 19 11 10 9 8 9 9 10 11
17 18 19 17 15 14 12 11 10 9 8 7 6 6 5 5 4 3 2 2 5 2 3 5 5 4 4 6 4 4 4 3 3 4 5 6 5 7 5 4 9 8 15 20 17 9 8 6 7 9 10 9 10 9
17 17 17 16 15 14 13 12 10 9 9 8 6 5 6 6 8 5 6 13 2 2 2 4 5 4 2 3 4 4 3 3 4 5 5 5 2 3 3 8 14 12 12 9 7 6 9 9 9 9 9 10 10 9
17 17 16 16 15 14 13 11 10 10 9 8 6 4 3 3 4 1 12 12 2 1 3 3 3 3 8 4 2 2 5 3 5 6 7 4 4 5 7 10 18 16 12 9 8 11 10 10 9 9 10 10 10 11
18 17 16 16 15 14 13 11 10 11 9 6 3 4 4 4 18 13 2 4 3 4 4 3 4 4 4 6 4 2 3 5 4 7 4 9 7 5 15 22 24 19 15 11 11 8 8 8 8 8 8 8 11 9
18 17 17 16 15 15 13 12 11 12 8 3 4 3 3 14 3 3 4 5 5 4 6 6 8 4 0 2 5 3 4 4 5 5 7 5 5 10 10 9 8 22 15 14 10 8 9 12 10 10 9 8 11 10
17 17 17 16 16 15 14 13 14 7 4 3 2 1 3 4 4 4 4 4 6 5 8 5 7 7 2 1 5 4 4 4 6 6 7 5 6 11 7 9 8 17 13 13 14 13 12 10 8 9 9 9 9 9
17 17 16 16 16 15 15 13 18 9 6 4 3 4 3 4 3 6 6 4 4 4 0 2 5 6 3 4 6 4 5 5 12 5 6 5 8 8 9 3 11 15 15 15 15 15 14 11 10 10 9 8 9 10
17 16 16 16 16 16 14 13 17 9 1 3 3 2 4 5 6 6 7 7 5 4 4 3 3 2 4 3 4 5 4 2 6 6 7 4 8 8 8 7 8 13 14 17 17 17 15 13 11 10 9 8 9 9
16 16 16 15 16 15 14 14 16 2 1 4 4 4 8 8 7 4 8 6 4 4 2 3 3 3 2 4 5 3 4 6 6 4 5 8 9 8 12 9 10 10 9 15 15 15 13 12 11 9 8 8 9 8
17 13 9 15 17 16 16 14 5 1 1 4 6 6 7 7 8 6 3 6 5 4 3 4 5 7 6 3 5 5 5 6 4 8 16 6 9 11 12 11 11 10 14 15 13 13 13 12 11 9 9 9 8 9
19 4 15 19 19 17 17 4 2 4 4 5 6 7 8 8 7 3 3 3 1 2 2 5 3 6 4 5 5 6 6 3 5 9 12 19 7 15 15 14 14 16 15 14 13 13 11 11 11 11 9 7 8 8
4 8 21 23 17 11 2 2 3 7 8 7 7 6 6 6 7 3 3 3 1 1 3 2 2 3 6 7 7 3 2 3 6 8 9 9 15 14 13 16 17 17 16 14 14 11 13 13 11 7 9 8 8 7
10 12 25 27 10 5 3 4 4 4 8 5 9 7 3 6 2 1 6 3 2 1 5 2 4 5 5 4 12 13 12 9 9 9 14 25 19 16 15 16 16 16 16 15 14 10 9 9 8 7 7 6 5 5
15 22 28 22 14 3 6 4 5 4 4 6 8 6 8 3 3 4 7 5 4 2 4 5 6 4 4 10 7 9 11 9 9 6 14 13 7 14 13 13 11 13 13 13 11 12 9 7 7 6 7 6 6 6
11 18 23 15 2 3 2 5 6 5 3 4 6 8 6 4 4 8 4 7 4 3 4 5 6 3 6 8 5 5 10 9 9 9 14 15 2 7 9 10 11 10 11 9 10 9 9 7 7 7 7 5 6 5
8 15 4 2 3 3 3 4 4 6 5 6 0 5 5 7 7 4 6 8 7 6 6 7 7 6 5 6 6 5 11 14 17 12 22 16 7 7 9 9 9 9 8 9 9 9 6 8 7 8 6 5 7 6
12 4 3 3 3 3 6 3 5 6 4 6 5 6 4 5 6 5 8 7 9 9 8 7 7 6 6 5 7 6 9 11 11 16 17 5 6 6 7 6 9 9 8 7 9 7 7 10 7 9 5 5 8 6
7 5 5 7 6 5 5 5 4 5 6 6 3 5 7 4 6 7 9 9 9 8 8 9 7 4 3 4 5 6 4 7 11 15 11 8 6 8 7 6 8 6 7 8 7 7 9 7 8 6 10 9 8 6
6 3 3 5 6 6 6 5 7 5 8 7 10 7 3 3 4 9 11 10 9 9 7 7 6 7 5 4 4 6 7 6 10 12 14 6 7 5 4 7 7 7 9 9 9 10 8 6 6 7 11 9 9 8
4 7 9 10 7 6 6 6 8 8 8 12 9 7 6 5 8 7 7 11 9 8 7 4 4 5 4 3 4 9 13 7 8 11 10 8 7 5 8 9 9 6 10 10 9 11 10 6 9 9 11 11 10 8
5 7 6 6 6 7 6 5 4 4 10 6 3 9 7 5 8 7 1 6 4 4 5 3 4 7 7 6 9 10 9 7 5 14 9 6 7 5 9 10 10 7 10 11 9 10 9 9 9 12 10 8 7 10
6 5 12 12 9 7 8 7 9 9 6 3 3 6 6 4 2 4 4 9 6 6 6 7 5 4 7 10 9 7 8 3 8 11 4 6 4 9 12 10 10 13 9 8 9 7 8 9 10 11 10 7 4 8
4 7 8 11 9 3 2 5 5 2 3 7 7 10 10 1 2 1 3 6 5 5 6 7 7 5 7 7 8 8 3 3 2 8 1 6 7 5 5 10 10 9 8 7 8 11 12 11 12 10 8 6 6 12
7 6 4 5 7 6 6 5 5 6 5 3 7 7 7 5 3 5 5 5 5 5 5 6 8 8 6 4 9 6 8 9 6 4 3 7 8 5 7 10 11 10 10 11 10 8 11 10 8 6 9 8 11 10
7 7 7 6 6 6 6 5 5 8 6 2 6 8 8 8 7 4 3 2 6 5 7 8 8 8 7 3 9 12 7 4 5 4 11 9 6 10 10 10 10 10 10 11 11 10 10 9 8 11 9 11 12 12
8 8 5 6 5 5 5 6 7 6 6 7 9 8 7 8 11 7 3 3 4 7 8 7 7 4 3 3 10 6 4 3 4 10 13 7 9 11 11 11 11 10 11 12 11 11 11 10 9 10 12 14 15 12
9 9 7 6 4 7 4 3 4 8 8 10 11 10 10 9 10 3 2 5 7 7 6 5 5 3 7 14 4 3 2 3 10 9 7 8 12 12 11 10 11 11 13 11 11 10 12 14 14 12 15 15 16 16
Wind_Direction
178 183 182 183 183 186 192 195 199 196 209 225 242 276 314 330 339 332 297 174 163 276 287 263 312 319 332 312 337 331 322 9 317 173 249 264 333 314 328 122 171 168 145 195 186 185 140 237 50 127 212 311 109 124
179 180 177 173 178 180 185 189 195 195 203 221 234 259 296 314 332 341 275 147 136 226 266 303 271 259 259 267 294 327 284 334 352 347 5 350 20 351 334 354 338 45 72 274 308 189 196 230 136 119 110 99 100 111
177 173 171 168 169 176 182 189 193 195 200 213 227 250 276 301 323 327 305 322 236 258 276 244 253 257 251 244 238 276 291 15 347 315 280 302 72 293 357 15 320 31 17 67 9 274 207 171 133 101 107 93 108 122
169 165 164 162 167 174 181 184 192 194 198 209 221 240 265 286 305 317 287 304 262 281 272 287 344 325 302 295 281 270 249 276 241 277 252 246 136 58 8 320 328 11 341 4 302 282 58 144 113 107 90 84 100 107
163 165 162 161 167 171 174 180 187 193 197 207 218 234 257 282 305 294 266 266 240 275 303 295 301 270 252 252 275 292 271 223 284 299 275 265 136 115 125 253 203 233 137 204 254 227 141 150 122 108 99 107 112 113
157 163 158 161 168 172 175 178 187 191 200 208 218 229 255 281 327 281 251 60 360 317 283 295 318 280 279 267 263 273 223 209 200 229 286 270 165 103 142 163 261 192 225 21 289 280 113 119 103 100 110 111 110 114
158 166 164 163 168 172 174 182 187 193 199 207 216 232 258 283 288 273 339 252 346 335 265 284 275 290 316 231 234 228 219 223 214 253 235 249 249 188 170 158 266 195 215 247 218 132 80 99 134 120 115 109 107 118
169 167 163 164 168 171 174 180 185 192 194 200 212 234 259 278 278 271 226 213 222 253 268 272 269 285 302 264 207 196 210 230 211 208 275 264 71 109 310 143 179 177 214 279 223 116 127 117 97 102 102 98 103 99
176 170 167 165 163 167 171 175 182 183 185 190 207 239 263 221 230 229 106 120 108 300 285 267 278 282 0 274 243 228 202 220 234 214 229 256 198 192 192 178 178 202 172 213 150 116 111 115 119 118 117 116 112 115
174 171 171 167 169 170 170 172 180 173 169 175 204 207 222 194 115 126 164 153 190 194 221 253 287 292 341 5 281 190 230 190 255 215 236 214 264 244 229 185 207 194 192 141 121 128 127 123 134 130 130 123 122 127
174 172 171 171 171 172 172 172 174 150 142 215 217 253 63 147 178 194 205 221 167 213 206 221 216 242 359 330 305 291 300 240 209 235 184 204 208 246 204 160 53 259 158 160 147 140 141 142 146 133 126 116 120 127
174 174 174 173 175 174 175 174 168 175 200 217 287 12 280 215 218 224 201 227 188 237 167 191 198 173 157 195 248 268 265 266 232 178 190 217 203 226 233 206 169 154 147 139 141 136 137 138 139 124 120 122 126 125
179 176 175 177 176 176 176 179 185 224 296 280 252 162 227 223 193 203 216 196 212 200 10 269 151 137 167 117 270 252 234 245 320 219 191 190 208 231 207 143 137 139 139 137 141 138 137 132 119 117 121 122 119 117
180 179 178 176 176 178 178 180 186 212 6 251 227 263 224 220 212 220 239 234 243 92 68 54 342 100 138 205 238 230 235 321 265 210 190 188 196 186 174 156 122 153 141 137 134 136 133 125 124 118 122 126 120 128
182 181 179 180 178 177 173 172 178 140 223 253 248 230 218 243 300 282 218 243 83 55 78 54 33 288 127 233 239 237 221 234 263 255 182 203 203 171 180 164 141 121 130 131 132 130 127 124 120 120 124 118 116 121
176 166 188 176 174 169 164 169 151 97 251 253 241 262 257 222 239 250 330 71 66 112 107 78 69 291 212 219 235 218 264 199 311 332 313 176 162 144 142 138 125 124 128 126 127 127 123 122 122 125 110 113 121 124
170 193 172 169 165 156 145 99 95 192 225 237 239 246 279 291 307 89 123 92 259 190 105 99 227 241 290 219 231 168 244 350 327 321 320 329 177 142 144 131 120 121 120 121 121 122 120 116 117 117 116 124 120 121
181 175 159 158 148 119 106 106 166 211 227 240 261 271 293 291 331 103 110 124 180 128 116 160 116 263 265 242 223 198 324 279 341 331 312 291 267 122 124 121 126 125 126 125 123 122 119 124 125 124 121 124 117 122
170 162 159 153 127 105 134 167 250 242 221 229 221 259 287 312 325 116 107 115 72 50 123 158 192 240 244 343 350 349 350 353 347 333 324 312 294 107 111 113 116 124 125 126 127 127 128 131 131 127 131 127 131 131
165 160 145 143 152 148 164 168 191 264 266 214 233 231 238 227 290 247 143 144 145 234 225 219 225 236 333 310 332 323 325 340 337 345 272 252 107 102 111 121 124 124 118 117 113 120 127 120 126 131 143 149 142 153
130 144 142 149 91 253 264 166 172 206 270 269 222 221 235 235 210 241 234 165 182 207 232 247 286 299 276 280 289 312 310 324 329 309 292 291 75 99 105 115 123 123 128 132 133 138 142 139 148 142 151 158 152 158
114 116 108 65 199 179 249 236 239 176 202 256 295 323 264 235 251 217 195 217 220 231 232 238 243 251 251 267 289 298 299 313 305 283 264 238 134 121 131 140 135 137 138 138 137 150 143 143 147 142 159 160 147 132
88 100 119 144 166 183 260 252 242 179 220 208 218 211 248 265 260 266 254 232 234 233 231 239 229 213 235 272 295 288 294 308 303 306 311 226 122 127 142 141 133 143 139 136 139 158 139 142 139 150 158 116 112 118
144 123 160 176 172 204 222 205 230 174 210 186 191 210 238 243 242 235 254 255 256 247 241 244 231 215 142 219 247 270 311 297 288 286 275 121 130 132 140 135 144 140 130 134 141 123 131 134 129 126 117 118 112 114
112 205 154 211 200 193 203 166 206 232 216 232 238 252 251 177 271 252 246 238 240 257 257 236 220 195 169 236 272 275 292 276 289 291 293 119 116 122 132 125 118 121 126 112 127 122 121 116 112 123 124 122 121 126
160 182 180 193 180 182 204 188 192 215 223 238 245 251 240 249 250 264 243 226 227 228 237 236 180 147 138 165 276 288 288 303 317 302 263 133 139 150 135 129 126 126 123 127 129 130 135 123 130 119 117 126 128 132
198 195 186 213 196 192 211 218 191 222 231 214 228 240 220 231 227 225 220 27 23 2 330 268 211 163 173 182 228 252 269 274 253 288 282 147 152 137 126 129 123 125 125 129 132 136 138 131 126 119 122 124 147 136
243 197 198 182 194 211 218 218 234 227 231 211 217 243 216 232 353 43 29 322 329 327 314 313 290 222 210 218 176 216 259 230 265 292 331 50 55 120 122 115 114 115 122 122 122 126 119 122 121 123 127 132 142 120
240 193 201 204 189 203 192 230 238 247 252 258 233 250 271 294 108 43 341 298 298 305 315 322 303 235 227 147 174 199 195 282 253 251 4 93 88 41 102 118 113 104 103 94 87 114 117 113 119 125 133 127 104 109
220 222 177 224 212 185 207 208 232 236 241 100 272 284 297 305 268 166 211 237 278 290 285 275 285 299 245 190 169 198 224 223 224 240 146 140 149 164 125 114 111 111 110 107 104 101 102 106 105 109 111 98 107 128
212 208 200 188 224 236 247 244 238 252 264 211 273 266 269 273 283 277 266 259 272 265 263 259 252 257 245 163 172 173 196 236 278 352 107 135 151 130 124 120 116 115 118 116 119 125 125 122 122 123 130 125 123 116
213 233 203 219 229 228 241 233 226 228 267 264 263 259 258 267 271 283 206 176 233 263 250 250 269 278 32 93 225 227 189 166 136 144 132 137 128 129 126 124 122 123 124 124 127 133 128 129 124 121 116 111 120 125
199 205 207 200 219 241 174 246 267 262 250 255 251 244 253 267 272 244 218 207 229 247 257 252 234 186 130 254 177 180 201 84 110 116 131 129 128 132 127 130 129 133 132 133 140 147 144 131 128 125 120 116 115 118